Location: Enid
(36.3960°N, 97.8780°W)
Time: 16:10:12
(UTC-06:00)

Hubble Space Telescope - Visible Passes

Search period start: 05 February 2016 00:00
Search period end: 15 February 2016 00:00
Orbit: 540 x 544 km, 28.5° (Epoch: 05 February)

Date Brightness Start Highest point End Pass type
(mag) Time Alt. Az. Time Alt. Az. Time Alt. Az.
10 Feb 3.2 19:15:53 10° SSE 19:16:11 10° SSE 19:16:29 10° SSE visible
11 Feb 3.1 19:04:50 10° S 19:06:39 13° SSE 19:08:26 10° SE visible
11 Feb 3.7 20:43:55 10° SW 20:44:13 11° SW 20:44:13 11° SW visible
12 Feb 3.0 18:54:42 10° SSW 18:57:06 15° SSE 18:59:31 10° SE visible
12 Feb 3.3 20:34:19 10° SW 20:35:26 16° SW 20:35:26 16° SW visible
13 Feb 2.8 18:44:47 10° SSW 18:47:34 18° SSE 18:50:22 10° ESE visible
13 Feb 2.9 20:24:47 10° SW 20:26:38 20° SW 20:26:38 20° SW visible
14 Feb 2.7 18:34:59 10° SW 18:38:03 20° SSE 18:41:07 10° ESE visible
14 Feb 2.5 20:15:16 10° WSW 20:17:50 24° SSW 20:17:50 24° SSW visible
